Location: Dunn (historical)
(35.2693°N, 90.5721°W)
Time: 12:23:39
(UTC+00:00)

Cosmos 2221 Rocket - Pass Details

Date: 13 February 2026
Orbit: 616 x 641 km, 82.5° (Epoch: 8 March)

Event Time Altitude Azimuth Distance (km) Brightness Sun altitude
Rises 12:09:54 0° 341° (NNW) 2,951 6.8 -8.9°
Reaches altitude 10° 12:12:20 10° 332° (NNW) 2,037 5.9 -8.4°
Maximum altitude 12:16:19 31° 270° (W) 1,112 4.3 -7.6°
Drops below altitude 10° 12:20:17 10° 208° (SSW) 2,016 6.0 -6.8°
Sets 12:22:41 0° 198° (SSW) 2,916 7.0 -6.4°
